N7MLR Weather Reports


time (UTC)temp
F
wind
direction
speed
knots
gust
knots
rain 1hr
in
rain 24hr
in
rain mn
in
humidity
%
barometer
mb
20220811225529 75 213 0.9 0.9 0.00 0.23 0.23 93 1014.9
20220811225028 75 211 1.7 1.7 0.11 0.23 0.23 93 1014.7
20220811224528 75 221 1.7 1.7 0.11 0.23 0.23 93 1015.1
20220811224027 76 181 1.7 1.7 0.00 0.21 0.21 90 1015.0
20220811223527 76 205 1.7 1.7 0.00 0.21 0.21 89 1015.2
20220811223026 76 162 2.6 2.6 0.07 0.21 0.21 89 1014.9
20220811222525 76 95 2.6 2.6 0.11 0.21 0.21 88 1014.6
20220811222025 76 106 3.5 4.3 0.16 0.20 0.20 88 1014.6
20220811221524 77 110 2.6 2.6 0.61 0.19 0.19 90 1014.7
20220811221024 78 200 1.7 1.7 1.01 0.18 0.18 87 1014.9
20220811220523 81 183 0.9 0.9 0.61 0.10 0.10 81 1014.5
20220811220021 91 216 0.9 0.9 0.07 0.01 0.01 59 1014.4
20220811215521 92 200 1.7 1.7 0.00 0.00 0.00 45 1014.5
20220811215020 92 209 1.7 1.7 0.00 0.00 0.00 46 1014.4
20220811214518 92 128 2.6 2.6 0.00 0.00 0.00 44 1014.1
20220811214018 91 53 2.6 2.6 0.00 0.00 0.00 45 1013.7
20220811213517 92 216 2.6 2.6 0.00 0.00 0.00 45 1014.1
20220811213016 95 222 0.9 0.9 0.00 0.00 0.00 42 1014.1
20220811212516 95 222 1.7 1.7 0.00 0.00 0.00 41 1014.1
20220811212015 95 227 1.7 1.7 0.00 0.00 0.00 41 1014.1
20220811211514 95 230 2.6 2.6 0.00 0.00 0.00 41 1014.1
20220811211013 96 217 0.9 0.9 0.00 0.00 0.00 40 1014.0
20220811210511 99 282 2.6 4.3 0.00 0.00 0.00 37 1014.1
20220811210011 96 210 0.9 1.7 0.00 0.00 0.00 40 1014.2
20220811205510 96 224 2.6 4.3 0.00 0.00 0.00 38 1014.4
20220811205008 97 237 1.7 1.7 0.00 0.00 0.00 38 1014.4
20220811204507 97 213 0.9 1.7 0.00 0.00 0.00 37 1014.4
20220811204008 97 225 2.6 2.6 0.00 0.00 0.00 37 1015.0
20220811203507 99 216 0.9 1.7 0.00 0.00 0.00 36 1014.5
20220811203005 99 229 1.7 4.3 0.00 0.00 0.00 35 1014.6
20220811202505 96 216 2.6 2.6 0.00 0.00 0.00 38 1014.9
20220811202003 95 224 0.9 0.9 0.00 0.00 0.00 39 1014.7
20220811201503 96 194 4.3 5.2 0.00 0.00 0.00 38 1014.6
20220811201002 97 219 2.6 4.3 0.00 0.00 0.00 36 1014.8
20220811200501 98 232 4.3 7.8 0.00 0.00 0.00 36 1014.8
20220811200001 99 192 1.7 2.6 0.00 0.00 0.00 35 1014.9
20220811195459 97 195 0.9 0.9 0.00 0.00 0.00 36 1015.1
20220811194958 99 154 2.6 4.3 0.00 0.00 0.00 35 1015.1
20220811194457 101 184 0.9 0.9 0.00 0.00 0.00 34 1015.3
20220811193957 100 202 0.9 1.7 0.00 0.00 0.00 35 1015.4
20220811193456 99 249 0.9 0.9 0.00 0.00 0.00 36 1015.3
20220811192955 97 214 1.7 1.7 0.00 0.00 0.00 37 1015.5
20220811192454 94 208 3.5 4.3 0.00 0.00 0.00 40 1015.9
20220811191953 95 238 4.3 5.2 0.00 0.00 0.00 41 1015.7
20220811191452 96 176 3.5 5.2 0.00 0.00 0.00 39 1015.9
20220811190950 97 235 1.7 1.7 0.00 0.00 0.00 37 1015.8
20220811190449 98 214 1.7 2.6 0.00 0.00 0.00 36 1015.9
20220811185949 98 218 2.6 2.6 0.00 0.00 0.00 35 1016.2
20220811185448 97 216 3.5 4.3 0.00 0.00 0.00 36 1016.3
20220811184947 98 214 1.7 1.7 0.00 0.00 0.00 34 1016.3
20220811184446 98 237 2.6 2.6 0.00 0.00 0.00 35 1016.3
20220811183945 98 217 2.6 4.3 0.00 0.00 0.00 35 1016.3
20220811183444 98 204 6.1 7.0 0.00 0.00 0.00 36 1016.4
20220811182944 96 211 0.9 0.9 0.00 0.00 0.00 38 1016.6
20220811182443 96 185 2.6 4.3 0.00 0.00 0.00 40 1016.7
20220811181942 97 234 0.9 1.7 0.00 0.00 0.00 38 1017.0
20220811181441 94 220 0.9 1.7 0.00 0.00 0.00 42 1017.0
20220811180941 95 205 5.2 6.1 0.00 0.00 0.00 42 1017.5
20220811180441 95 202 0.9 0.9 0.00 0.00 0.00 41 1017.3
20220811175939 95 204 0.9 0.9 0.00 0.00 0.00 42 1017.5
20220811175439 94 252 0.9 1.7 0.00 0.00 0.00 42 1017.5
20220811174937 94 218 1.7 1.7 0.00 0.00 0.00 43 1017.6
20220811174436 92 159 1.7 2.6 0.00 0.00 0.00 43 1017.6
20220811173935 93 209 0.9 0.9 0.00 0.00 0.00 45 1017.8
20220811173434 92 274 0.9 1.7 0.00 0.00 0.00 43 1018.1
20220811172933 92 246 0.9 0.9 0.00 0.00 0.00 46 1018.1
20220811172433 91 202 1.7 1.7 0.00 0.00 0.00 45 1018.1
20220811171931 91 214 2.6 4.3 0.00 0.00 0.00 47 1018.4
20220811171431 92 193 0.9 1.7 0.00 0.00 0.00 46 1018.3
20220811170930 92 206 0.9 1.7 0.00 0.00 0.00 44 1018.4
20220811170429 91 207 0.9 0.9 0.00 0.00 0.00 47 1018.3
20220811165929 91 191 1.7 1.7 0.00 0.00 0.00 46 1018.4
20220811165428 91 204 1.7 1.7 0.00 0.00 0.00 47 1018.5
20220811164924 90 204 0.9 0.9 0.00 0.00 0.00 46 1018.6
20220811164424 90 231 1.7 1.7 0.00 0.00 0.00 46 1018.6
20220811163923 90 210 0.9 0.9 0.00 0.00 0.00 46 1018.5
20220811163422 91 207 0.9 0.9 0.00 0.00 0.00 45 1018.5
20220811162923 91 209 0.9 0.9 0.00 0.00 0.00 45 1018.7
20220811162421 89 209 0.9 1.7 0.00 0.00 0.00 48 1018.6
20220811161921 89 208 0.9 0.9 0.00 0.00 0.00 49 1018.5
20220811161420 90 179 0.9 1.7 0.00 0.00 0.00 49 1018.4
20220811160920 90 205 0.9 0.9 0.00 0.00 0.00 48 1018.8
20220811160418 89 192 1.7 1.7 0.00 0.00 0.00 49 1018.9
20220811155918 89 204 0.0 0.9 0.00 0.00 0.00 50 1018.8
20220811155417 89 202 0.9 0.9 0.00 0.00 0.00 51 1018.5
20220811154916 89 208 0.9 0.9 0.00 0.00 0.00 50 1018.5
20220811154415 89 204 0.9 0.9 0.00 0.00 0.00 50 1018.5
20220811153916 90 211 0.9 0.9 0.00 0.00 0.00 50 1018.5
20220811153414 89 212 1.7 1.7 0.00 0.00 0.00 50 1018.3
20220811152913 90 204 0.9 0.9 0.00 0.00 0.00 51 1018.6
20220811152412 89 207 0.9 0.9 0.00 0.00 0.00 49 1018.4
20220811151911 88 212 0.9 0.9 0.00 0.00 0.00 53 1018.5
20220811151411 86 210 0.9 0.9 0.00 0.00 0.00 54 1018.6
20220811150909 87 207 1.7 1.7 0.00 0.00 0.00 56 1018.5
20220811150408 87 157 0.9 1.7 0.00 0.00 0.00 56 1018.6
20220811145906 87 212 1.7 1.7 0.00 0.00 0.00 57 1018.4
20220811145406 84 208 0.9 0.9 0.00 0.00 0.00 61 1018.7
20220811144906 84 206 0.9 0.9 0.00 0.00 0.00 62 1018.5
20220811144405 84 211 1.7 1.7 0.00 0.00 0.00 62 1018.3
20220811143905 84 212 0.9 0.9 0.00 0.00 0.00 63 1018.4
20220811143404 83 213 0.9 0.9 0.00 0.00 0.00 65 1018.3
20220811142903 83 212 0.9 1.7 0.00 0.00 0.00 66 1018.5
20220811142402 83 211 0.9 0.9 0.00 0.00 0.00 65 1018.3
20220811141901 83 199 0.0 0.0 0.00 0.00 0.00 66 1018.4
20220811141401 82 215 0.0 0.0 0.00 0.00 0.00 67 1018.4
20220811140859 81 211 0.0 0.0 0.00 0.00 0.00 70 1018.3
20220811140359 81 198 0.9 0.9 0.00 0.00 0.00 70 1018.3
20220811135859 81 208 0.0 0.9 0.00 0.00 0.00 72 1018.2
20220811135358 81 193 0.9 0.9 0.00 0.00 0.00 73 1018.1
20220811134857 81 212 0.0 0.0 0.00 0.00 0.00 71 1018.2
20220811134355 81 212 0.9 0.9 0.00 0.00 0.00 73 1018.1
20220811133854 80 211 0.0 0.0 0.00 0.00 0.00 75 1018.1
20220811133352 79 207 0.9 0.9 0.00 0.00 0.00 76 1018.1
20220811132851 79 212 0.0 0.0 0.00 0.00 0.00 76 1017.8
20220811132350 80 215 0.0 0.0 0.00 0.00 0.00 76 1018.1
20220811131850 80 212 0.0 0.0 0.00 0.00 0.00 74 1017.9
20220811131349 79 212 0.0 0.9 0.00 0.00 0.00 77 1018.1
20220811130848 78 212 0.0 0.0 0.00 0.00 0.00 78 1017.9
20220811130348 78 215 0.0 0.0 0.00 0.00 0.00 78 1017.8
20220811125847 77 221 0.0 0.0 0.00 0.00 0.00 79 1017.8
20220811125346 77 221 0.0 0.0 0.00 0.00 0.00 80 1017.8
20220811124845 77 212 0.0 0.0 0.00 0.00 0.00 80 1017.9
20220811124345 76 212 0.9 0.9 0.00 0.00 0.00 80 1017.8
20220811123845 75 211 0.0 0.0 0.00 0.00 0.00 83 1017.7
20220811123344 75 211 0.0 0.0 0.00 0.00 0.00 83 1017.5
20220811122843 75 212 0.0 0.0 0.00 0.00 0.00 83 1017.7
20220811122342 75 211 0.0 0.0 0.00 0.00 0.00 83 1017.7
20220811121842 75 211 0.0 0.0 0.00 0.00 0.00 82 1017.6
20220811121341 75 211 0.0 0.0 0.00 0.00 0.00 81 1017.6
20220811120841 76 211 0.0 0.0 0.00 0.00 0.00 80 1017.5
20220811120340 74 211 0.0 0.0 0.00 0.00 0.00 83 1017.5
20220811115839 74 211 0.0 0.0 0.00 0.00 0.00 84 1017.6
20220811115339 74 211 0.0 0.0 0.00 0.00 0.00 83 1017.4
20220811114839 74 211 0.0 0.0 0.00 0.00 0.00 84 1017.2
20220811114338 74 211 0.0 0.0 0.00 0.00 0.00 83 1017.7
20220811113838 74 211 0.0 0.0 0.00 0.00 0.00 83 1017.6
20220811113336 74 211 0.0 0.0 0.00 0.00 0.00 83 1017.6
20220811112836 74 211 0.0 0.0 0.00 0.00 0.00 83 1017.5
20220811112335 74 212 0.0 0.0 0.00 0.00 0.00 84 1017.2
20220811111831 74 211 0.9 0.9 0.00 0.00 0.00 84 1017.4
20220811111327 74 211 0.0 0.0 0.00 0.00 0.00 84 1017.3
20220811110827 74 217 0.0 0.0 0.00 0.00 0.00 83 1017.3
20220811110326 74 217 0.0 0.0 0.00 0.00 0.00 83 1017.4
20220811105826 75 215 0.0 0.0 0.00 0.00 0.00 82 1017.4
20220811105326 75 217 0.0 0.0 0.00 0.00 0.00 80 1017.2
20220811104825 75 212 0.0 0.9 0.00 0.00 0.00 81 1017.2
20220811104324 74 215 0.0 0.0 0.00 0.00 0.00 84 1017.4
20220811103824 73 215 0.0 0.0 0.00 0.00 0.00 84 1017.5
20220811103320 74 219 0.0 0.0 0.00 0.00 0.00 84 1017.3
20220811102818 74 220 0.0 0.0 0.00 0.00 0.00 83 1017.3
20220811102318 74 225 0.0 0.0 0.00 0.00 0.00 82 1017.4
20220811101817 75 216 0.0 0.0 0.00 0.00 0.00 82 1017.4
20220811101317 75 220 0.0 0.0 0.00 0.00 0.00 80 1017.5
20220811100817 74 215 0.0 0.0 0.00 0.00 0.00 81 1017.3
20220811100317 74 215 0.0 0.0 0.00 0.00 0.00 83 1017.6
20220811095816 74 212 0.0 0.0 0.00 0.00 0.00 83 1017.4
20220811095315 75 212 0.0 0.0 0.00 0.00 0.00 82 1017.6
20220811094815 75 212 0.0 0.0 0.00 0.00 0.00 81 1017.5
20220811094314 76 212 0.0 0.0 0.00 0.00 0.00 79 1017.5
20220811093814 75 212 0.0 0.0 0.00 0.00 0.00 80 1017.5
20220811093312 75 212 0.0 0.0 0.00 0.00 0.00 82 1017.6
20220811092812 75 212 0.0 0.9 0.00 0.00 0.00 81 1017.5
20220811092311 75 212 0.0 0.0 0.00 0.00 0.00 81 1017.5
20220811091810 75 212 0.0 0.0 0.00 0.00 0.00 81 1017.5
20220811091309 75 215 0.0 0.0 0.00 0.00 0.00 81 1017.5
20220811090808 76 215 0.0 0.0 0.00 0.00 0.00 79 1017.8
20220811090308 75 212 0.0 0.0 0.00 0.00 0.00 81 1017.7
20220811085807 75 218 0.0 0.0 0.00 0.00 0.00 81 1018.1
20220811085306 75 213 0.0 0.0 0.00 0.00 0.00 81 1017.7
20220811084806 75 219 0.0 0.0 0.00 0.00 0.00 81 1017.9
20220811084304 75 213 0.0 0.0 0.00 0.00 0.00 80 1017.8
20220811083804 76 210 0.0 0.0 0.00 0.00 0.00 79 1017.9
20220811083302 77 212 0.9 0.9 0.00 0.00 0.00 78 1018.0
20220811082801 75 212 0.0 0.0 0.00 0.00 0.00 81 1017.9
20220811082300 75 212 0.0 0.0 0.00 0.00 0.00 81 1017.9
20220811081801 75 212 0.0 0.0 0.00 0.00 0.00 81 1018.0
20220811081259 75 212 0.0 0.0 0.00 0.00 0.00 81 1018.0
20220811080758 75 212 0.0 0.9 0.00 0.00 0.00 80 1018.1
20220811080256 77 212 0.0 0.0 0.00 0.00 0.00 78 1017.9
20220811075755 76 212 0.0 0.9 0.00 0.00 0.00 79 1018.1
20220811075255 75 212 0.0 0.0 0.00 0.00 0.00 81 1018.1
20220811074754 75 212 0.0 0.0 0.00 0.00 0.00 81 1018.0
20220811074254 76 212 0.0 0.0 0.00 0.00 0.00 80 1017.9
20220811073753 76 212 0.0 0.0 0.00 0.00 0.00 79 1018.2
20220811073251 77 212 0.0 0.9 0.00 0.00 0.00 77 1018.4
20220811072751 76 212 0.0 0.9 0.00 0.00 0.00 79 1018.1
20220811072250 75 211 0.0 0.0 0.00 0.00 0.00 81 1018.3
20220811071750 75 212 0.0 0.0 0.00 0.00 0.00 81 1018.3
20220811071249 76 212 0.0 0.0 0.00 0.00 0.00 80 1018.5
20220811070749 76 212 0.0 0.0 0.00 0.00 0.00 78 1018.6
20220811070248 77 212 0.0 0.0 0.00 0.00 0.00 77 1018.6
20220811065747 76 212 0.0 0.0 0.00 0.00 0.00 79 1018.4
20220811065246 75 211 0.0 0.0 0.00 0.00 0.00 80 1018.7
20220811064745 76 211 0.0 0.0 0.00 0.00 0.00 79 1018.9
20220811064244 76 215 0.0 0.0 0.00 0.00 0.00 79 1018.9
20220811063744 77 215 0.0 0.0 0.00 0.00 0.00 76 1019.0
20220811063243 77 218 0.9 0.9 0.00 0.00 0.00 77 1018.8
20220811062742 76 214 0.0 0.9 0.00 0.00 0.00 79 1019.0
20220811062241 76 211 0.0 0.0 0.00 0.00 0.00 79 1018.9
20220811061740 77 211 0.0 0.0 0.00 0.00 0.00 78 1019.0
20220811061240 77 211 0.0 0.0 0.00 0.00 0.00 77 1019.1
20220811060739 78 212 0.0 0.0 0.00 0.00 0.00 75 1018.9
20220811060239 77 214 0.0 0.9 0.00 0.00 0.00 77 1018.9
20220811055738 77 215 0.0 0.0 0.00 0.00 0.00 78 1019.1
20220811055237 77 217 0.0 0.0 0.00 0.00 0.00 77 1019.1
20220811054737 78 217 0.0 0.0 0.00 0.00 0.00 76 1019.2
20220811054236 78 216 0.0 0.9 0.00 0.00 0.00 74 1019.2
20220811053735 77 214 0.0 0.0 0.00 0.00 0.00 77 1019.0
20220811053234 77 225 0.0 0.0 0.00 0.00 0.00 77 1019.3
20220811052733 77 220 0.0 0.0 0.00 0.00 0.00 77 1019.2
20220811052232 78 225 0.0 0.0 0.00 0.00 0.00 76 1018.8
20220811051731 78 221 0.0 0.0 0.00 0.00 0.00 75 1018.9
20220811051230 78 222 0.0 0.0 0.00 0.00 0.00 74 1019.0
20220811050729 78 227 0.9 0.9 0.00 0.00 0.00 75 1019.0
20220811050227 78 170 2.6 2.6 0.00 0.00 0.00 75 1019.1
20220811045726 79 227 0.9 1.7 0.00 0.00 0.00 73 1019.0
20220811045226 80 229 0.0 0.9 0.00 0.00 0.00 71 1018.7
20220811044725 79 217 0.0 0.9 0.00 0.00 0.00 71 1019.1
20220811044224 79 239 1.7 1.7 0.00 0.00 0.00 73 1019.2
20220811043724 79 224 1.7 2.6 0.00 0.00 0.00 72 1019.3
20220811043223 79 227 0.9 0.9 0.00 0.00 0.00 71 1019.2
20220811042723 80 225 0.9 1.7 0.00 0.00 0.00 70 1019.6
20220811042221 80 218 2.6 2.6 0.00 0.00 0.00 69 1019.6
20220811041721 80 262 2.6 4.3 0.00 0.00 0.00 69 1019.6
20220811041219 80 208 1.7 1.7 0.00 0.00 0.00 70 1019.3
20220811040718 81 222 3.5 6.1 0.00 0.00 0.00 70 1019.2
20220811040218 81 219 1.7 1.7 0.00 0.00 0.00 68 1019.2
20220811035717 81 294 3.5 6.1 0.00 0.00 0.00 67 1019.4
20220811035217 82 281 0.9 1.7 0.00 0.00 0.00 67 1019.0
20220811034716 82 210 3.5 6.1 0.00 0.00 0.00 66 1018.6
20220811034216 82 265 3.5 5.2 0.00 0.00 0.00 65 1018.6
20220811033715 82 245 2.6 2.6 0.00 0.00 0.00 59 1018.7
20220811033214 83 224 2.6 4.3 0.00 0.00 0.00 59 1018.9
20220811032714 83 219 0.0 0.0 0.00 0.00 0.00 58 1018.3
20220811032213 83 212 1.7 1.7 0.00 0.00 0.00 58 1018.3
20220811031712 83 211 1.7 2.6 0.00 0.00 0.00 58 1018.6
20220811031211 83 215 0.9 0.9 0.00 0.00 0.00 58 1018.6
20220811030710 83 215 0.0 0.9 0.00 0.00 0.00 58 1018.7
20220811030210 83 214 1.7 2.6 0.00 0.00 0.00 58 1018.4
20220811025710 83 209 2.6 2.6 0.00 0.00 0.00 58 1018.6
20220811025210 83 215 0.0 0.9 0.00 0.00 0.00 59 1018.4
20220811024709 83 212 0.9 0.9 0.00 0.00 0.00 60 1018.2
20220811024207 83 213 0.0 0.9 0.00 0.00 0.00 60 1018.1
20220811023707 83 215 1.7 1.7 0.00 0.00 0.00 61 1017.8
20220811023205 83 210 0.9 0.9 0.00 0.00 0.00 60 1017.9
20220811022705 83 215 3.5 4.3 0.00 0.00 0.00 59 1017.9
20220811022204 83 217 2.6 2.6 0.00 0.00 0.00 60 1017.9
20220811021705 83 219 2.6 2.6 0.00 0.00 0.00 61 1017.8
20220811021204 83 215 1.7 1.7 0.00 0.00 0.00 61 1017.8
20220811020703 83 222 0.9 0.9 0.00 0.00 0.00 62 1017.7
20220811020202 83 225 0.0 0.0 0.00 0.00 0.00 62 1017.7
20220811015701 83 212 0.9 1.7 0.00 0.00 0.00 62 1017.8
20220811015159 83 213 1.7 1.7 0.00 0.00 0.00 62 1017.6
20220811014658 83 218 0.9 0.9 0.00 0.00 0.00 61 1017.6
20220811014158 83 198 0.9 1.7 0.00 0.00 0.00 61 1017.5
20220811013657 83 222 0.0 0.9 0.00 0.00 0.00 64 1017.7
20220811013156 84 224 0.0 0.0 0.00 0.00 0.00 62 1017.5
20220811012656 84 229 0.9 0.9 0.00 0.00 0.00 60 1017.1
20220811012156 84 232 0.0 0.0 0.00 0.00 0.00 61 1017.3
20220811011655 83 228 0.0 0.9 0.00 0.00 0.00 62 1017.2
20220811011153 84 194 2.6 5.2 0.00 0.00 0.00 62 1017.0
20220811010653 84 183 4.3 5.2 0.00 0.00 0.00 62 1016.9
20220811010151 84 209 4.3 6.1 0.00 0.00 0.00 61 1016.4
20220811005651 84 213 7.8 9.6 0.00 0.00 0.00 60 1016.4
20220811005149 84 214 4.3 5.2 0.00 0.00 0.00 62 1016.2
20220811004649 83 191 4.3 6.1 0.00 0.00 0.00 63 1016.5
20220811004148 83 184 2.6 4.3 0.00 0.00 0.00 64 1016.7
20220811003647 83 206 5.2 7.0 0.00 0.00 0.00 66 1016.9
20220811003148 83 228 5.2 6.1 0.00 0.00 0.00 65 1016.3
20220811002647 83 236 2.6 5.2 0.00 0.00 0.00 65 1016.6
20220811002146 83 161 4.3 7.0 0.00 0.00 0.00 65 1016.4
20220811001645 83 210 2.6 4.3 0.00 0.00 0.00 67 1016.6
20220811001144 83 209 2.6 2.6 0.00 0.00 0.00 67 1016.6
20220811000643 84 218 7.0 8.7 0.00 0.00 0.00 64 1016.6
20220811000143 86 204 7.0 7.8 0.00 0.00 0.00 60 1016.4
20220810235642 86 204 1.7 4.3 0.00 0.00 0.00 57 1016.4
20220810235142 87 170 4.3 7.8 0.00 0.00 0.00 56 1016.4
20220810234640 86 168 5.2 7.0 0.00 0.00 0.00 56 1016.5
20220810234138 86 211 3.5 5.2 0.00 0.00 0.00 56 1016.3
20220810233637 87 151 3.5 5.2 0.00 0.00 0.00 54 1016.4
20220810233136 88 146 7.0 11.3 0.00 0.00 0.00 53 1016.3
20220810232636 89 222 6.1 7.0 0.00 0.00 0.00 51 1016.5
20220810232135 89 218 2.6 4.3 0.00 0.00 0.00 50 1016.2
20220810231634 89 222 7.0 9.6 0.00 0.00 0.00 50 1016.2
20220810231133 95 224 5.2 7.0 0.00 0.00 0.00 43 1016.0
20220810230633 98 189 3.5 6.1 0.00 0.00 0.00 32 1015.6
20220810230133 100 203 0.9 1.7 0.00 0.00 0.00 31 1015.4